Theta_e
307 309 313 316 319 321 320 319 317 319 320 312 312 313 315 321 321 321 320 320 321 327 328 329 328 327 328 332 343 348 346 348 348 347 346 350 346 350 355 354 354 351 350 345 337 333 329 328 328 327 327 327 327 328 328 329 331 334 337 340 342 342 342 341 339 340 340 340 338 339 341 341 341 338 333 333 332 328 328 328 329 331 335 338 341 342 343 342 341 340 340 339 339 339 339 339 338
314 318 320 320 319 318 318 320 315 314 315 309 312 314 316 322 321 319 320 320 324 331 331 331 330 329 330 331 339 346 348 346 346 349 348 347 346 349 354 354 353 351 348 343 336 331 329 328 328 328 327 327 327 328 328 328 329 333 337 341 343 342 342 342 341 340 340 340 339 339 341 342 341 338 333 331 332 330 330 331 332 333 337 339 341 342 342 341 340 339 338 338 338 339 339 338 338
318 323 322 318 316 317 320 321 316 310 310 308 311 318 320 320 319 321 322 322 328 332 330 329 330 330 333 335 339 346 348 345 345 346 344 347 348 349 352 354 353 350 347 342 337 332 328 328 328 328 327 327 328 328 329 328 328 331 335 340 342 342 342 342 341 340 339 339 341 341 341 342 341 340 336 333 331 333 334 335 336 337 340 341 341 341 341 340 339 339 338 338 339 339 339 338 337
315 320 319 317 316 317 318 318 318 311 308 307 308 318 323 321 322 324 328 328 328 327 328 330 331 334 341 343 341 345 347 344 345 345 345 346 346 350 352 353 352 349 347 345 341 334 329 329 329 328 328 328 328 329 329 328 328 328 331 337 340 341 341 341 341 340 340 340 341 341 342 342 342 340 340 338 335 337 338 339 339 340 341 341 341 341 340 339 338 338 338 338 339 339 338 338 337
311 316 317 318 317 319 319 317 317 312 309 310 309 319 325 325 327 328 329 330 327 326 327 330 333 337 344 345 345 346 346 345 345 345 345 346 347 350 351 352 352 350 348 346 343 335 331 330 330 329 328 328 328 329 329 328 328 327 328 333 337 339 340 340 340 340 340 340 341 342 343 343 343 340 339 338 337 338 339 339 339 340 342 341 341 340 339 338 337 338 338 338 339 338 337 336 336
311 316 317 317 318 320 320 317 314 311 314 317 314 319 326 326 329 329 329 328 328 327 326 331 333 337 346 347 346 347 347 346 346 346 346 346 348 349 350 351 351 350 349 347 344 337 331 331 330 329 327 328 328 329 329 329 329 328 328 330 333 336 337 338 338 339 340 341 341 342 342 342 342 339 337 336 335 336 338 339 339 340 340 339 339 339 338 337 338 338 338 339 339 338 336 335 335
315 317 318 317 316 318 318 314 313 313 317 320 318 320 324 325 328 327 327 327 327 327 325 331 331 339 347 346 347 349 348 346 346 346 346 346 348 349 350 351 350 350 349 348 344 337 333 332 330 328 328 328 328 329 329 329 329 329 330 331 332 333 335 336 338 339 340 340 341 340 340 341 341 338 334 334 336 337 338 338 337 335 334 335 336 337 337 337 338 338 338 338 338 336 334 334 334
316 316 318 316 316 317 315 312 313 315 317 320 320 320 322 324 325 323 324 324 325 328 326 330 331 341 344 345 349 350 348 347 346 346 346 346 347 347 349 352 351 350 349 348 343 336 333 332 331 329 328 328 329 329 329 330 330 330 331 333 333 334 335 337 338 339 339 339 339 337 338 339 338 336 334 336 338 338 336 335 333 330 330 332 334 337 337 337 337 337 338 337 336 335 333 333 333
315 316 317 318 318 317 314 313 314 317 318 319 321 321 321 321 322 321 321 321 322 325 328 331 332 341 345 349 350 349 349 348 347 346 346 346 347 346 348 351 351 350 350 348 341 336 334 332 332 329 328 327 329 329 330 330 330 331 332 333 334 336 336 337 339 339 338 337 336 335 336 338 337 337 336 338 338 338 336 335 333 331 329 329 332 336 337 337 336 337 337 336 336 334 333 332 331
316 315 317 320 318 313 310 312 315 318 319 319 319 321 321 320 321 320 320 320 323 324 329 331 333 339 345 350 350 349 348 348 346 345 346 345 346 346 346 349 350 351 350 346 339 336 334 334 332 330 328 328 328 329 330 330 331 332 332 333 335 336 336 337 337 336 335 334 333 333 335 336 337 337 337 338 338 338 337 337 335 332 329 326 329 335 336 336 336 337 337 336 335 332 331 330 330
316 316 317 316 314 310 308 311 314 318 319 320 320 320 321 320 320 320 320 320 320 323 327 329 336 341 345 350 349 347 346 345 345 345 345 345 345 346 346 346 350 351 349 346 340 337 336 334 333 331 329 328 328 328 329 330 332 333 333 333 333 333 334 334 335 333 332 332 331 332 334 336 336 336 337 338 338 338 337 337 335 332 330 328 328 332 335 335 336 336 336 336 334 331 330 330 331
316 316 317 314 311 311 311 312 313 318 319 320 321 320 320 320 319 319 319 319 319 322 325 330 336 340 344 349 348 345 344 342 342 343 343 344 344 345 344 345 349 350 349 347 341 338 337 336 334 331 330 328 328 328 329 330 332 334 333 331 330 331 332 332 333 332 333 332 332 332 333 335 335 336 337 337 337 337 337 337 335 332 330 329 328 331 334 336 336 335 335 335 332 330 330 331 332
316 317 318 314 315 314 314 313 315 318 317 320 320 319 320 319 319 318 319 319 319 321 325 334 337 339 343 348 347 344 344 342 342 342 341 343 344 345 344 345 347 349 349 348 344 339 337 337 335 332 330 329 328 328 329 329 331 333 332 329 329 329 330 332 332 332 333 335 336 336 335 335 336 337 337 337 336 336 336 336 335 333 330 329 329 330 332 335 336 335 335 334 332 330 331 332 331
316 316 317 315 317 317 315 313 314 314 315 320 319 319 320 319 319 318 318 318 320 320 325 337 336 341 346 349 349 346 346 344 343 343 342 343 344 344 344 344 344 347 348 348 346 342 341 339 337 335 332 330 329 329 329 329 331 332 330 329 330 331 331 333 333 333 334 336 338 339 337 337 337 338 338 335 334 334 334 335 335 333 331 330 329 329 331 333 334 334 335 334 332 331 332 332 330
316 316 317 315 315 315 316 315 315 313 314 319 318 318 318 318 319 317 318 317 318 319 327 336 334 341 345 348 350 347 346 345 344 343 343 343 343 343 344 344 343 343 345 347 347 345 345 343 342 338 334 333 331 331 330 329 331 331 331 331 332 332 333 334 335 335 336 338 339 339 337 337 338 339 338 335 334 333 332 333 335 335 333 331 330 329 330 331 332 333 334 333 333 333 332 332 330
316 316 317 315 313 313 315 316 316 314 316 319 318 319 318 318 319 318 319 318 319 319 327 336 334 338 338 341 347 347 346 344 344 344 343 343 343 343 343 344 342 343 343 345 346 346 347 346 345 340 338 337 335 334 331 330 331 331 332 333 334 334 335 335 335 336 337 339 339 337 337 338 338 339 338 336 334 333 333 334 335 336 335 332 330 330 331 330 330 333 333 332 333 332 331 331 330
317 316 316 313 313 312 314 316 315 314 316 320 318 319 318 318 319 319 321 318 320 319 324 335 334 335 334 337 345 348 347 344 345 345 344 343 343 343 342 342 342 343 343 343 345 346 347 346 346 344 343 341 339 338 336 333 331 330 332 333 335 336 336 336 335 336 337 339 339 335 335 338 338 338 338 337 335 334 333 333 334 334 334 333 332 331 331 330 330 332 332 331 332 332 331 331 331
316 317 314 311 313 314 316 317 317 317 318 318 318 319 318 318 319 319 321 320 321 320 322 337 338 337 338 342 348 349 348 346 346 345 345 344 343 343 343 342 342 343 343 343 344 346 347 346 346 345 344 343 342 341 340 338 333 330 332 332 335 336 337 337 337 338 338 339 338 334 334 337 338 338 337 337 336 335 334 332 332 331 331 332 332 333 333 332 331 331 331 332 332 332 331 331 331
316 316 314 312 315 316 317 318 318 319 318 317 317 318 317 318 318 318 321 321 322 321 319 335 341 342 344 347 349 349 349 349 347 344 344 344 343 344 344 342 342 343 342 342 343 345 346 346 346 344 343 343 343 341 342 342 337 333 334 333 335 335 336 338 337 338 338 338 337 335 334 335 336 337 337 338 337 335 335 333 331 329 329 330 331 333 333 332 331 330 330 330 331 331 331 331 329
316 315 314 315 316 316 318 318 318 318 317 317 317 317 318 317 317 320 321 322 323 321 318 332 342 346 347 346 348 350 349 348 348 345 344 343 343 344 343 344 343 343 343 341 342 343 345 345 345 344 344 344 343 342 342 344 340 338 337 335 336 335 336 338 338 338 337 337 337 336 336 335 335 336 337 337 336 335 335 333 331 329 328 328 329 332 331 330 330 331 328 327 328 329 329 329 328
316 315 313 315 316 316 317 317 317 317 317 316 317 316 317 317 319 319 319 321 320 321 320 327 343 347 348 347 348 350 349 349 346 344 344 344 344 343 343 344 344 344 343 342 341 342 343 344 345 344 344 343 341 342 342 343 342 341 340 339 339 338 338 338 338 337 336 337 336 336 337 336 336 336 337 336 336 335 335 333 331 329 329 329 328 330 331 330 330 331 329 327 326 327 327 327 327
315 315 315 315 315 316 316 318 316 316 316 315 316 316 316 317 318 318 317 319 320 324 327 327 338 344 348 349 349 350 349 348 347 345 346 346 344 343 344 343 343 343 341 340 338 339 340 341 343 344 344 343 341 341 342 342 342 342 342 341 340 340 340 338 337 337 337 337 336 336 337 337 336 336 337 336 336 337 336 335 333 332 332 332 330 330 333 332 330 331 331 329 327 328 328 328 328
314 315 315 316 315 316 316 317 316 315 316 315 315 315 316 317 317 317 318 319 322 332 334 333 338 342 347 349 349 349 348 345 346 348 347 346 345 344 343 343 342 341 337 337 336 335 337 338 339 340 342 342 341 340 341 342 342 342 341 341 340 340 340 338 337 337 337 337 337 337 337 338 337 335 336 335 336 336 336 336 335 333 333 334 332 330 332 333 331 331 332 331 329 329 329 329 330
314 314 315 315 315 315 316 316 316 315 315 315 315 316 317 316 316 317 319 320 323 333 335 334 339 342 345 346 344 345 344 340 339 345 348 346 345 343 343 342 342 339 336 337 335 334 334 336 337 336 337 338 340 341 341 341 340 340 340 339 339 338 339 338 337 336 336 336 336 337 337 338 336 334 335 335 335 336 335 335 334 333 333 333 333 331 331 333 332 332 332 331 331 330 329 329 330
314 314 314 314 315 316 315 316 315 315 315 315 315 316 316 316 317 318 320 322 325 331 333 334 337 341 344 343 340 338 339 339 334 339 346 345 344 343 343 342 340 338 337 337 336 334 333 333 336 335 335 335 337 340 340 339 338 338 338 338 337 337 338 337 337 337 337 337 336 336 336 337 336 335 335 335 336 336 335 335 335 334 333 333 333 332 332 333 332 332 331 331 331 330 329 328 329
314 314 314 314 315 315 315 315 315 315 315 315 315 315 316 316 317 317 319 323 327 331 333 334 336 338 343 342 340 337 336 339 336 335 343 344 343 344 343 340 338 338 338 338 336 336 334 332 335 336 336 337 335 338 340 339 337 336 336 335 335 336 337 336 337 337 337 336 336 336 335 336 337 336 335 335 335 334 334 334 335 334 333 333 333 333 334 334 333 332 330 330 330 330 329 328 327
314 315 315 314 314 315 315 315 315 315 315 316 315 315 316 317 318 316 320 326 330 331 332 333 333 335 340 343 341 338 336 337 336 334 342 344 344 344 343 339 338 340 339 338 336 335 334 333 334 336 336 337 336 336 339 337 336 335 335 334 333 335 336 336 337 337 337 336 336 337 336 336 336 337 336 335 334 334 334 334 334 334 333 333 334 334 334 334 333 331 330 330 330 329 329 328 327
315 315 314 315 315 314 315 315 315 316 316 316 315 316 316 318 318 318 324 328 329 330 331 331 333 335 337 341 341 339 337 337 334 334 342 344 343 343 342 339 338 340 339 336 335 335 335 334 336 337 335 335 334 335 335 334 334 334 334 334 334 336 336 335 336 337 336 336 336 336 337 337 336 337 337 336 335 335 335 334 334 334 333 333 333 334 334 334 333 331 331 331 330 329 328 327 327
315 314 314 314 314 314 315 314 316 316 315 316 316 314 315 318 318 319 327 328 327 330 330 330 333 336 338 339 337 335 335 334 332 334 341 341 340 341 341 338 338 338 337 335 334 335 335 335 336 337 334 332 333 332 332 331 332 332 332 333 335 336 335 334 335 336 337 336 336 336 337 336 336 336 335 335 335 335 334 334 334 334 334 333 333 333 332 333 333 332 332 331 329 329 329 327 327
314 314 313 312 313 314 315 315 315 316 315 317 316 311 312 317 318 321 326 327 326 327 329 330 332 334 336 337 334 334 335 336 333 335 339 340 339 340 340 339 338 338 338 336 336 336 336 335 336 335 332 332 333 330 330 330 330 330 331 333 335 335 334 333 333 335 336 336 336 337 337 336 336 336 335 335 335 334 335 334 334 334 334 333 334 333 331 331 332 332 332 330 328 328 329 328 326
314 313 312 313 310 311 316 316 315 315 315 317 316 309 312 317 318 321 322 324 327 326 328 330 331 333 336 336 334 334 337 335 332 335 339 341 340 340 341 339 338 337 338 338 337 337 336 336 336 334 332 333 333 331 332 332 331 331 332 333 334 333 332 332 333 334 335 335 336 336 336 336 336 336 335 335 334 334 334 333 332 333 333 333 333 334 333 332 333 333 332 330 329 328 327 327 326
314 311 310 312 310 311 317 316 315 316 315 317 315 310 313 317 318 319 320 322 325 327 329 331 332 334 336 335 333 334 337 336 331 334 339 341 341 341 341 339 337 337 338 337 336 337 337 337 336 335 335 334 333 333 334 333 332 332 332 332 332 331 331 332 332 333 333 333 335 335 335 335 335 336 335 334 334 335 334 332 331 331 332 333 333 333 334 334 333 333 333 331 330 329 327 326 327
315 312 309 311 311 311 314 316 317 316 315 316 315 312 313 318 319 318 320 319 322 327 329 332 333 333 334 334 333 334 339 340 333 333 338 341 341 341 340 339 337 338 338 336 336 338 338 337 335 336 336 334 334 335 334 332 331 331 331 331 330 329 329 329 330 331 331 331 332 333 333 334 334 334 334 334 334 333 332 331 331 331 331 331 333 333 333 334 334 333 333 331 331 330 329 329 328
312 312 309 311 312 312 312 315 317 316 316 316 315 315 315 318 319 317 319 318 319 326 329 331 331 331 331 332 333 333 335 337 334 335 339 338 338 340 339 338 337 338 337 336 337 338 338 336 334 335 335 334 334 334 333 331 330 329 328 327 326 326 326 327 327 327 329 329 329 329 331 331 331 332 332 332 332 332 331 331 331 331 331 331 332 333 333 333 333 333 333 332 331 330 330 330 330
312 313 311 311 312 312 312 314 317 316 317 316 316 315 315 318 318 318 319 318 318 323 328 329 330 331 331 331 332 332 335 335 333 335 338 336 337 338 337 338 338 338 337 337 338 337 336 335 334 335 335 333 333 333 332 330 329 327 325 323 323 323 324 326 326 326 326 327 327 328 328 328 328 330 330 329 330 330 330 330 330 331 331 332 332 332 333 332 333 333 333 332 332 330 330 331 330
315 316 313 311 311 312 314 316 317 317 316 316 316 314 315 318 318 319 318 319 319 319 325 329 331 333 331 331 330 331 334 332 330 334 335 333 334 335 336 338 338 338 338 337 337 335 335 336 335 335 335 334 334 333 330 328 327 326 324 324 323 325 326 325 325 325 326 326 326 326 326 325 326 327 327 327 327 326 327 327 328 329 330 330 330 331 331 332 332 333 333 332 332 331 330 331 330
319 318 315 313 312 312 316 318 317 318 317 316 317 316 316 317 318 320 319 319 320 318 322 326 329 330 329 329 329 331 332 330 330 334 333 332 332 334 335 338 338 338 338 337 336 335 336 336 335 335 335 334 333 332 329 328 327 325 325 324 322 324 324 324 326 326 326 325 324 324 324 324 325 324 325 326 325 324 324 325 326 328 329 329 330 331 331 331 331 331 332 332 332 331 331 331 330
318 317 314 312 312 313 317 318 318 319 317 316 318 316 317 318 318 319 318 320 319 318 321 322 326 328 327 327 328 330 330 328 331 332 330 330 331 333 334 338 339 339 339 338 338 337 336 335 335 336 334 333 332 330 328 327 326 324 324 323 322 323 323 324 325 324 322 322 322 322 323 323 324 323 323 324 324 324 323 323 325 326 327 328 330 331 331 331 331 330 331 331 332 332 331 331 331
317 317 314 310 312 313 317 319 319 318 316 316 317 316 317 318 319 318 319 319 319 320 321 321 322 323 325 326 327 330 332 330 330 330 329 328 331 332 332 335 340 340 339 339 339 338 336 336 335 335 334 332 331 329 327 326 325 323 322 322 323 324 324 324 324 323 322 322 322 323 323 324 324 323 323 323 323 323 322 322 323 324 325 326 328 328 329 329 329 329 330 330 331 331 331 331 331
317 316 312 310 312 312 312 317 320 320 318 317 317 317 318 320 319 319 320 320 321 321 320 321 322 321 323 325 328 330 332 332 331 330 329 327 330 333 331 333 339 341 341 339 339 338 336 336 336 335 332 331 331 329 327 326 325 323 322 323 324 324 324 323 323 322 322 322 322 322 323 324 324 323 323 322 321 322 322 322 321 321 322 323 325 327 326 326 327 328 328 329 330 330 330 330 330
315 316 313 312 314 314 313 317 321 320 320 321 319 315 315 319 319 318 320 320 321 320 319 319 320 321 322 325 331 332 332 333 332 331 330 328 328 330 332 335 338 340 341 340 339 338 336 336 335 334 331 330 330 328 327 326 325 324 325 325 324 322 321 321 322 322 322 321 321 322 323 324 324 323 322 321 321 321 321 321 320 320 321 321 323 324 324 323 326 327 327 328 329 329 329 329 330
314 317 317 315 316 317 316 318 319 317 317 320 320 313 312 316 317 318 319 319 320 320 319 320 319 320 320 323 332 333 332 332 332 332 332 331 329 329 331 337 339 338 339 340 339 337 336 336 335 332 329 329 329 328 327 326 325 325 326 325 323 322 321 322 322 322 322 321 320 322 324 324 323 323 322 321 321 321 320 320 321 320 320 320 320 321 321 321 322 324 325 326 328 328 328 327 328
313 316 318 317 319 318 317 318 317 314 314 319 320 315 313 314 315 318 319 318 319 320 320 320 319 320 320 321 327 332 335 335 332 332 333 333 332 331 331 333 337 338 337 338 339 338 335 336 335 330 329 329 329 328 327 325 326 325 325 323 321 322 323 322 322 322 321 320 321 322 322 322 323 322 322 322 321 321 321 320 320 319 318 318 318 319 320 320 321 320 321 323 324 326 326 327 327
314 318 318 317 318 318 318 317 315 315 315 318 318 316 313 312 315 318 318 318 319 320 321 320 319 319 321 321 322 326 332 333 332 332 333 333 332 332 331 332 334 336 336 336 337 337 335 335 334 330 329 329 328 329 326 324 325 324 322 321 320 322 322 322 322 322 321 320 321 322 321 322 322 322 322 321 321 320 320 319 318 317 317 317 316 317 317 318 319 320 320 321 321 322 323 324 326
317 319 319 317 318 319 318 317 314 315 315 314 315 315 314 313 315 318 318 317 320 321 321 320 319 319 319 320 320 321 325 328 329 329 331 331 331 331 330 331 331 332 335 335 335 336 334 335 334 330 329 329 329 329 325 322 324 322 321 320 320 322 322 322 322 322 321 321 322 321 321 321 321 321 320 320 319 318 317 317 316 316 315 315 315 315 316 316 318 318 319 320 320 320 321 322 322
318 318 318 318 319 319 318 318 315 315 316 314 314 314 314 313 314 316 317 316 318 321 321 319 318 319 319 319 320 321 322 324 324 325 329 330 331 332 330 330 330 329 332 335 335 335 333 335 334 330 329 330 329 328 324 322 323 322 321 321 320 323 322 321 322 321 321 321 321 321 321 321 320 319 318 318 318 317 316 316 316 315 316 316 316 316 316 316 316 317 317 318 319 318 318 319 319
318 318 317 317 317 317 318 318 315 316 317 315 314 315 315 314 313 316 319 318 318 321 321 320 320 319 319 321 321 320 321 321 321 321 325 328 328 329 330 330 329 329 331 334 335 334 333 335 334 331 330 330 329 327 324 324 324 322 323 321 321 323 321 320 321 321 321 321 321 321 320 320 320 318 318 318 318 317 317 317 316 316 317 317 317 317 317 317 317 317 318 317 318 318 318 318 317
316 316 316 314 314 315 315 316 316 318 317 314 314 314 315 314 314 317 320 320 319 320 321 321 320 320 320 321 320 319 320 319 320 321 325 329 328 326 329 330 330 330 333 336 336 335 333 334 335 331 330 331 330 327 324 325 325 322 323 321 320 322 320 319 322 321 321 322 321 320 320 320 319 318 317 318 318 318 317 317 317 316 316 316 317 317 317 318 318 318 318 318 318 317 318 317 317
315 313 312 313 314 316 317 317 318 319 317 315 315 315 314 314 315 318 318 318 319 319 320 320 320 321 321 320 319 319 320 319 319 322 326 330 331 330 329 329 332 334 335 335 336 336 333 334 335 331 330 331 330 327 324 325 325 323 323 322 321 322 320 319 322 321 321 322 320 320 320 320 319 318 318 318 318 319 318 318 318 317 316 315 315 316 316 317 317 316 317 317 316 316 316 316 316
314 312 311 314 316 319 321 319 319 320 317 317 319 316 314 314 316 319 317 317 319 319 318 320 321 322 321 319 319 319 320 321 322 324 327 329 331 332 329 327 333 336 335 334 335 336 333 333 334 331 330 331 330 327 324 324 325 323 323 322 321 323 321 320 322 321 321 322 321 320 320 320 320 318 318 319 318 319 319 319 319 318 316 315 315 315 316 317 317 317 317 317 316 317 317 316 316
314 314 313 314 314 317 319 318 317 318 315 315 317 315 314 315 319 321 318 318 318 318 318 318 320 320 320 318 318 320 321 322 324 326 328 329 330 332 331 330 332 334 333 333 334 335 333 333 334 332 330 331 330 327 325 325 325 324 324 322 322 322 321 321 322 322 321 321 321 321 320 320 320 319 319 319 318 318 319 319 319 318 317 316 316 315 316 316 317 317 316 317 317 316 316 315 315
314 314 313 313 313 315 316 316 315 315 315 314 314 314 314 319 322 320 318 319 317 317 318 317 318 318 318 319 319 321 323 324 326 328 329 329 329 330 330 330 330 330 331 332 332 333 332 332 333 331 329 331 331 327 326 325 324 324 325 323 322 322 321 321 321 322 322 321 320 321 320 319 320 320 319 320 319 318 319 320 319 319 317 317 316 316 317 316 316 317 316 316 316 315 316 317 316
313 312 311 313 315 314 313 314 314 313 315 316 313 314 315 317 321 319 318 318 315 316 316 316 318 318 320 322 322 321 324 325 327 328 328 329 329 329 328 328 328 328 329 330 330 330 330 331 332 330 328 330 331 327 325 326 325 324 325 324 323 322 322 321 320 320 321 320 320 320 321 320 319 320 320 320 320 318 319 320 320 319 318 317 316 316 317 316 315 317 317 315 316 316 317 317 316
311 310 311 312 314 314 313 313 313 315 316 315 312 313 313 313 316 318 317 317 316 316 316 317 319 320 321 323 323 323 324 326 326 327 327 327 328 327 327 327 327 327 327 328 329 329 329 329 330 329 327 328 330 328 326 326 325 325 324 324 324 323 322 322 320 320 320 321 320 320 321 320 319 319 320 320 320 319 319 320 320 320 319 318 317 316 317 316 314 317 317 316 317 317 316 315 315
311 310 312 312 311 312 312 313 314 315 316 315 313 312 310 310 314 316 316 317 318 315 316 318 319 320 322 322 323 324 324 325 325 325 325 326 327 327 326 326 327 327 327 327 328 328 329 329 328 329 328 327 328 328 326 325 325 326 325 324 325 324 323 323 322 320 320 321 322 320 321 321 319 319 319 320 321 320 320 320 320 320 320 319 318 316 317 315 314 316 315 315 317 315 315 316 315
312 311 311 311 310 310 311 312 313 313 315 315 315 313 313 315 317 318 318 318 319 320 318 318 318 319 321 322 322 322 323 325 325 324 324 324 325 325 326 326 326 326 327 327 327 327 328 328 327 327 326 324 324 326 327 326 325 326 326 325 325 325 324 324 324 322 321 321 322 321 321 321 320 320 319 320 321 321 320 320 320 320 320 320 318 317 317 315 315 316 314 315 316 314 315 317 315
312 310 310 313 313 312 312 311 310 312 314 315 315 313 316 321 320 318 319 318 321 323 321 318 319 319 320 321 322 322 322 323 324 324 324 324 324 324 324 324 324 324 325 325 326 327 327 327 327 327 325 324 323 323 325 326 326 325 326 326 326 326 326 325 323 322 322 321 322 321 321 321 320 320 320 320 321 321 321 321 321 320 320 321 319 318 317 316 315 316 314 314 315 314 314 316 315
313 312 312 315 317 317 316 313 312 314 316 317 316 314 317 321 319 318 319 317 319 320 319 318 320 320 320 320 321 321 321 321 322 323 323 323 324 324 323 323 323 323 323 323 324 325 325 326 326 326 326 325 325 324 325 325 324 325 325 325 325 325 325 325 324 322 321 321 321 321 321 321 321 321 320 320 321 322 322 321 321 321 320 320 321 319 317 317 316 316 315 315 316 315 314 314 315
Wind_Speed
5 7 7 8 9 11 9 6 4 4 5 6 8 8 9 13 9 2 1 1 2 2 3 3 2 3 6 4 12 17 16 12 9 5 4 5 13 22 26 29 29 29 26 27 29 26 25 23 23 22 21 21 19 18 17 16 15 15 14 14 14 14 14 14 14 15 15 14 13 12 12 12 12 12 11 12 15 15 13 11 10 9 9 8 9 10 9 11 12 11 11 11 11 11 10 10 9
6 9 9 10 10 8 5 4 5 4 6 7 8 9 11 12 4 3 7 7 1 7 4 4 2 2 5 6 5 15 15 14 14 10 8 14 17 19 25 27 28 28 27 29 30 27 26 24 23 23 22 21 20 19 17 16 15 15 15 15 15 15 15 15 15 15 15 14 12 12 12 13 13 12 12 11 13 13 11 10 9 8 8 8 9 9 9 11 11 10 10 10 10 10 10 10 9
9 11 11 10 8 7 4 4 6 5 7 7 7 10 12 11 5 2 5 3 8 9 2 2 2 4 3 5 8 12 12 11 14 12 10 15 15 18 24 25 27 27 27 29 28 28 27 25 24 23 22 21 20 19 17 16 15 15 15 16 16 16 16 15 15 15 14 13 12 11 12 13 13 13 12 11 12 11 10 9 9 9 9 8 9 9 9 10 9 9 9 9 9 9 9 9 9
10 11 11 8 6 6 5 4 6 7 7 7 8 9 6 5 1 4 7 8 8 4 3 2 2 6 10 10 9 10 10 9 11 10 9 12 14 21 24 25 26 26 26 25 24 28 28 26 25 23 23 21 20 19 17 16 15 15 15 16 16 16 16 15 15 15 14 13 12 12 12 13 13 13 12 12 12 10 9 9 10 10 9 8 9 8 8 8 7 8 8 8 9 8 9 8 8
10 11 11 9 5 3 4 5 6 7 7 7 8 4 5 6 6 8 9 7 5 3 3 1 2 8 12 11 7 5 6 7 9 10 11 15 20 23 24 25 25 24 24 24 24 27 28 26 25 24 23 21 20 18 17 16 15 15 15 16 16 16 16 16 15 14 13 13 13 13 13 13 13 13 13 12 12 10 9 9 9 9 9 8 9 8 7 8 7 7 8 8 9 8 8 7 7
10 12 11 9 5 4 4 5 7 7 9 10 10 5 4 5 7 6 4 3 2 2 4 2 1 5 11 9 9 7 5 4 7 9 13 19 22 22 23 23 22 24 24 23 24 27 28 26 25 24 23 21 20 18 17 16 16 15 15 15 16 16 16 15 15 14 13 13 14 14 14 13 13 12 12 12 11 10 9 8 9 9 9 9 9 8 7 8 7 7 8 9 9 7 6 6 6
11 9 7 8 5 4 5 7 8 8 10 11 13 10 3 8 7 3 3 0 2 3 3 4 3 5 8 6 8 9 8 7 7 9 16 22 24 22 22 21 22 26 24 21 24 28 28 26 26 24 23 22 20 18 17 17 17 16 15 15 15 15 15 15 15 14 14 14 15 15 14 12 11 11 10 10 10 9 9 8 8 8 8 8 8 8 8 8 7 8 8 8 7 5 4 4 4
12 8 3 6 5 5 7 8 9 8 10 11 12 11 4 9 4 4 7 4 1 3 5 4 2 5 7 6 7 7 10 9 9 14 19 21 22 22 21 21 22 24 23 21 25 29 28 26 26 24 23 22 20 19 18 18 17 16 15 15 15 14 15 15 15 14 14 14 14 14 13 11 10 10 10 10 9 8 8 7 6 6 7 7 7 8 9 8 7 8 7 5 4 3 3 3 4
11 7 4 6 6 6 8 8 10 10 13 13 11 10 2 3 2 3 9 9 2 4 4 3 0 4 8 10 8 7 9 7 12 17 18 19 20 19 20 21 21 21 22 22 27 29 27 26 25 24 23 22 20 19 18 18 17 17 16 15 15 14 15 15 14 14 14 14 13 13 12 11 10 11 10 9 8 7 7 6 6 6 6 6 8 10 9 8 7 7 6 4 3 3 2 2 4
7 6 5 5 6 7 8 8 9 10 12 16 13 6 1 1 3 4 7 9 6 7 4 5 1 6 9 9 8 5 5 6 13 16 17 17 17 18 18 21 21 21 22 24 28 29 27 25 24 23 23 22 20 19 18 18 17 17 16 15 15 14 15 14 14 14 14 13 13 12 11 11 10 10 9 8 7 6 6 5 5 5 6 7 8 10 9 7 6 6 5 4 4 3 3 4 6
5 5 5 5 7 7 8 8 9 10 13 16 11 2 1 1 1 6 6 8 10 9 3 5 5 12 11 7 5 4 7 7 5 14 19 16 16 19 17 19 21 21 23 25 28 28 26 24 23 23 22 21 20 19 18 17 17 17 16 15 15 14 14 13 13 13 12 12 11 11 10 10 9 9 8 7 6 6 5 5 5 5 6 7 8 9 9 7 6 6 5 5 5 4 5 7 7
6 5 6 6 7 7 8 9 10 11 13 12 4 2 5 3 2 5 7 9 9 8 5 5 9 13 9 5 2 3 7 6 3 4 13 17 16 18 18 18 20 21 22 23 25 27 26 24 23 21 21 20 19 18 17 16 16 15 15 15 14 13 13 12 12 11 11 10 10 10 9 9 8 8 8 7 7 6 5 5 5 5 6 7 8 8 8 7 6 6 5 5 5 6 7 7 5
6 6 6 7 7 8 10 9 11 11 11 7 3 5 2 5 2 5 6 8 8 10 5 12 16 14 8 6 4 2 6 9 9 4 5 14 17 18 18 18 19 21 21 21 24 25 25 24 23 21 20 20 18 17 16 15 14 14 14 14 14 13 12 11 11 10 10 10 10 9 8 8 8 7 8 7 7 6 5 5 5 5 6 6 7 8 8 7 6 5 5 4 5 7 7 6 4
7 6 6 7 7 9 9 9 10 9 8 4 5 8 7 3 2 2 6 9 10 11 3 18 17 13 10 7 6 5 6 10 14 13 8 11 16 17 18 18 19 21 20 21 22 23 23 22 22 20 20 19 17 16 15 14 13 13 14 13 12 11 12 11 11 10 10 10 9 9 8 8 8 8 8 8 7 6 5 4 4 5 5 6 6 7 7 7 5 5 5 4 6 7 7 5 4
7 6 6 7 7 9 8 10 9 8 6 5 5 5 5 4 2 1 6 8 8 9 4 16 12 9 9 8 7 8 13 16 16 16 14 13 15 17 17 17 18 18 19 21 21 21 20 19 20 20 20 18 17 15 15 14 13 13 13 12 11 11 11 11 11 11 10 9 9 8 8 8 8 7 8 8 7 6 5 4 4 5 5 5 6 6 6 6 5 5 5 4 6 8 6 5 4
6 5 6 6 7 9 7 10 9 8 7 4 2 1 1 4 2 2 5 6 8 10 1 11 6 6 8 7 11 16 19 20 17 15 17 17 16 18 17 16 17 16 17 19 20 19 18 18 18 19 19 17 16 14 14 15 14 14 13 12 12 11 11 10 11 10 10 8 9 8 8 8 7 7 7 8 7 6 5 5 5 4 4 5 5 6 6 6 6 6 5 4 6 8 6 5 4
6 5 6 7 7 10 8 10 9 7 4 5 3 0 3 3 2 2 2 5 10 12 2 13 8 7 9 9 17 24 24 21 18 16 16 15 15 16 15 16 17 16 16 17 19 19 17 17 17 18 18 17 17 15 15 15 15 14 14 13 12 12 11 11 11 9 8 8 9 8 8 9 8 7 8 8 7 7 6 6 5 5 4 4 5 6 6 7 7 7 6 6 7 8 6 5 4
6 6 7 7 8 10 8 11 11 4 2 3 7 5 2 4 5 3 2 6 8 12 6 15 16 12 14 16 24 24 23 22 20 17 14 14 14 13 14 16 16 16 16 15 18 18 17 16 16 18 18 17 17 16 15 13 14 15 14 13 12 12 12 12 11 9 8 8 9 9 10 11 10 8 9 9 8 7 7 7 6 6 5 5 5 6 6 6 6 7 7 7 8 8 6 5 5
7 6 7 8 9 10 12 16 10 4 5 7 8 3 1 3 5 4 4 8 7 11 10 14 20 16 17 19 23 22 21 20 19 18 14 14 15 13 13 15 16 17 17 17 19 18 16 17 15 17 18 17 16 14 13 11 13 15 13 12 11 12 12 10 9 7 6 6 8 11 12 11 11 10 10 9 9 9 8 8 8 7 8 7 7 7 6 6 5 6 7 8 8 8 7 6 6
7 7 7 9 11 13 15 16 8 8 9 11 9 4 3 5 4 3 5 9 10 11 11 12 20 19 17 17 18 20 20 17 17 17 15 15 15 14 13 15 16 16 17 18 21 20 18 16 14 16 17 17 16 14 12 11 14 15 14 13 12 13 12 9 8 7 7 8 10 12 13 12 10 10 10 9 9 10 9 9 10 10 10 9 8 7 6 6 6 6 7 8 9 9 10 9 9
7 8 9 11 13 13 12 10 6 6 9 8 11 8 6 10 3 2 7 8 10 10 10 7 20 24 21 19 17 18 19 18 17 15 15 15 13 13 13 14 15 15 16 16 18 21 21 17 16 16 16 16 15 14 12 11 14 14 13 13 12 12 11 9 9 8 10 11 12 13 13 11 10 9 10 10 9 10 10 10 11 11 10 9 8 7 6 6 6 7 8 9 10 10 11 11 12
7 9 12 13 14 12 10 7 3 3 6 6 9 9 9 9 3 6 10 6 9 5 8 2 18 23 22 21 18 17 16 15 17 17 15 15 14 12 13 15 16 16 15 15 15 18 21 18 17 18 16 14 12 12 11 10 12 11 10 11 11 11 9 9 10 10 13 11 10 12 12 11 11 10 9 9 9 9 11 10 10 10 10 9 8 8 8 8 6 6 9 9 9 10 11 12 13
8 10 12 12 13 14 10 7 4 2 4 7 9 10 9 8 7 10 9 8 6 10 18 14 15 15 18 19 15 14 10 6 8 15 17 15 17 15 15 16 17 16 14 15 15 15 18 18 18 19 17 16 13 11 11 10 11 9 10 11 11 9 7 8 10 10 12 11 9 11 11 11 12 12 10 10 9 8 11 11 11 12 12 12 11 10 9 10 7 7 10 9 7 10 11 11 10
11 9 11 12 13 12 10 8 6 5 6 8 9 11 9 8 10 8 6 9 2 16 19 17 16 11 12 12 11 11 10 6 7 8 17 16 17 18 15 16 17 16 15 15 16 14 15 16 18 17 13 15 15 13 12 12 11 10 11 11 10 9 8 7 8 9 11 12 12 12 11 10 10 11 9 8 9 9 12 14 14 13 11 13 12 11 11 10 8 9 10 10 8 10 10 8 8
10 10 11 13 12 9 9 9 7 9 8 8 11 11 10 11 11 7 6 8 4 14 16 15 14 11 10 10 11 9 9 12 5 14 14 17 17 20 15 15 16 14 16 16 15 14 14 15 17 15 12 13 13 12 12 11 10 10 11 10 10 11 9 9 10 9 10 12 12 12 12 11 9 9 9 8 9 11 14 14 14 12 9 11 11 10 11 8 8 10 10 9 9 9 9 9 10
7 11 13 13 13 10 9 10 11 11 8 8 12 11 12 13 10 8 9 5 7 15 15 13 12 10 9 9 11 10 7 12 6 16 11 17 18 20 17 16 15 14 16 16 14 13 13 15 15 16 16 14 12 12 11 10 9 8 6 6 8 9 8 10 10 9 10 10 10 11 13 12 10 9 8 9 9 9 12 12 11 10 9 9 8 9 9 6 5 8 9 8 8 10 11 9 10
5 9 12 13 13 10 9 11 12 9 8 11 12 12 13 11 6 7 7 5 11 16 14 10 11 8 9 10 8 11 8 9 13 18 14 17 16 18 17 16 16 16 16 15 14 11 11 13 13 14 16 15 14 14 12 9 8 7 5 5 7 5 7 9 8 9 10 10 11 12 11 11 11 9 7 8 8 8 11 12 9 8 7 7 6 7 8 6 5 6 8 9 6 9 12 8 7
8 8 9 12 12 11 12 13 11 7 9 12 10 13 13 8 6 7 5 11 11 13 13 9 10 8 9 10 6 7 5 6 9 19 12 14 14 17 16 15 16 18 16 14 14 12 11 13 13 14 15 13 11 14 13 8 9 8 7 9 10 6 8 9 7 9 9 9 11 11 11 10 10 9 7 6 5 6 8 9 8 6 6 5 4 4 4 5 6 8 9 9 7 8 11 8 5
9 8 9 13 13 13 15 14 12 9 9 11 10 11 10 8 8 6 9 14 10 8 10 11 10 9 9 9 6 6 3 5 3 17 10 13 13 17 16 16 18 18 17 15 15 14 12 15 15 14 14 12 10 12 11 9 9 8 7 9 10 8 7 7 6 8 8 8 10 9 10 10 10 9 7 7 5 4 5 5 6 5 5 4 4 4 4 4 7 11 10 8 7 7 10 11 8
8 10 9 10 10 12 15 14 12 12 11 11 9 8 8 11 10 7 7 10 13 9 8 12 11 8 9 7 6 6 4 7 7 20 12 16 13 17 17 18 19 18 17 17 17 14 13 16 14 13 13 12 10 11 9 9 9 8 10 11 9 8 7 7 6 7 7 7 7 6 7 8 8 8 7 8 7 7 6 6 6 6 7 6 7 7 7 9 11 12 11 9 8 8 10 12 12
8 10 9 7 8 10 12 12 11 12 8 10 9 7 6 10 13 12 6 8 13 13 11 10 10 8 9 6 6 5 3 7 11 22 12 17 15 17 17 18 19 19 19 19 18 15 14 14 13 13 12 11 11 10 10 10 9 9 11 12 8 6 7 9 8 8 7 6 6 5 5 6 6 7 7 7 7 9 8 6 6 7 9 9 8 9 9 10 12 11 11 12 10 10 10 10 13
8 8 7 8 9 6 10 11 10 9 7 10 9 7 6 10 11 9 5 7 9 13 13 10 9 10 11 7 6 4 3 7 12 23 11 16 16 17 18 18 18 20 20 20 19 17 16 14 13 14 12 12 11 10 11 11 10 9 10 10 8 6 7 8 8 8 6 4 7 5 4 5 5 5 5 6 7 7 6 6 6 7 9 9 8 9 8 8 11 12 12 12 10 10 10 9 9
7 7 7 8 10 4 9 10 11 10 9 12 11 9 7 7 7 8 8 9 7 12 16 13 12 12 12 9 7 5 4 6 10 19 13 14 15 17 18 18 18 21 21 20 20 18 17 15 15 14 12 12 11 11 11 11 11 10 9 8 7 7 6 6 7 9 7 4 4 3 2 2 1 2 3 4 6 6 4 5 6 6 8 9 9 9 8 8 9 11 11 12 10 10 11 6 2
6 7 7 9 10 5 7 9 10 10 8 8 11 11 7 4 7 4 7 8 8 13 17 16 13 11 10 9 9 8 7 6 12 14 13 11 14 16 17 17 19 22 21 20 20 19 18 16 16 15 13 12 11 11 10 10 10 9 9 8 7 7 6 5 6 7 8 6 5 3 2 2 2 1 2 1 2 2 2 3 4 5 6 7 8 9 8 7 8 8 10 12 11 11 11 6 1
3 5 6 7 8 6 5 5 7 7 6 7 9 10 7 7 8 6 7 6 9 9 14 14 12 12 11 10 11 11 11 12 10 12 13 10 12 15 16 16 19 21 20 21 20 18 19 17 17 16 13 12 12 11 10 10 9 8 8 7 6 8 8 7 6 7 7 6 4 3 2 2 2 3 3 3 3 3 1 1 2 1 2 3 6 7 6 6 6 6 7 9 11 11 11 8 3
9 11 8 5 6 7 5 2 7 7 6 8 9 10 11 9 10 10 7 5 8 7 9 14 13 12 12 11 11 11 12 11 8 13 15 12 10 13 15 15 18 21 20 21 20 19 19 18 18 16 14 14 13 12 11 10 9 7 7 7 7 9 10 8 6 7 8 7 5 3 3 3 4 5 5 5 5 4 3 4 5 5 3 2 3 4 4 4 5 5 6 7 8 9 9 7 4
10 12 9 4 5 6 5 5 8 4 5 7 8 11 12 8 9 8 6 8 8 5 5 9 13 13 12 11 12 12 12 11 10 13 15 15 13 12 15 16 17 19 21 20 20 20 20 19 19 17 16 15 13 12 11 10 9 8 7 7 8 8 8 7 7 9 7 6 5 5 6 5 6 6 5 5 5 4 4 5 6 6 5 4 2 1 1 2 3 4 5 6 6 6 6 5 4
9 9 8 4 6 5 4 6 5 3 3 6 7 11 10 9 10 4 5 9 6 4 8 5 9 13 12 12 13 12 11 10 10 12 13 16 17 12 12 15 17 18 20 21 20 20 20 19 20 19 17 15 14 13 11 9 8 8 7 7 9 8 8 9 9 8 5 5 5 6 7 7 7 7 6 6 6 6 6 7 8 8 6 7 7 3 2 1 2 3 3 3 4 4 4 3 4
8 7 7 6 8 6 6 8 1 2 2 5 7 8 9 9 8 4 5 8 3 5 8 7 7 10 10 12 15 12 12 11 9 10 11 15 18 17 13 13 16 18 19 21 20 21 21 20 20 19 18 16 14 13 11 9 8 8 7 7 9 10 10 12 11 8 6 7 6 6 7 7 7 6 6 7 9 9 8 8 7 8 7 6 7 6 5 5 3 1 1 2 2 2 2 3 4
7 6 7 7 8 9 2 6 1 4 1 4 8 8 9 8 4 5 9 8 5 6 9 10 8 8 7 8 15 15 13 13 11 11 11 11 14 19 16 16 17 17 18 20 20 21 21 20 20 19 19 17 15 14 13 11 10 10 10 10 11 11 10 11 10 8 7 7 7 7 8 8 8 8 7 9 11 8 8 10 6 5 7 6 4 5 7 7 6 6 5 2 2 2 1 1 3
8 8 9 9 9 10 5 3 4 5 5 5 9 8 6 7 5 6 9 7 8 9 10 10 8 8 7 6 15 15 12 11 11 12 13 11 11 15 17 18 17 17 17 19 20 21 20 20 20 20 19 18 17 15 14 14 13 12 12 11 11 11 10 9 9 8 6 6 7 8 8 8 9 10 9 11 11 7 6 8 6 4 6 6 7 7 7 7 5 5 7 7 5 5 5 2 1
8 8 10 11 12 11 8 2 3 2 6 6 7 7 5 7 8 9 9 8 9 9 9 8 8 8 7 5 12 13 10 10 11 12 11 9 11 14 16 16 15 16 17 18 20 19 20 21 21 20 20 19 18 17 16 17 16 14 13 12 11 12 10 9 9 7 7 7 8 7 8 8 9 9 10 10 11 9 7 7 8 9 7 5 8 9 8 9 8 6 8 10 7 6 7 6 5
6 4 6 9 10 10 9 8 6 4 5 4 7 6 5 5 8 9 8 9 11 9 8 8 7 7 7 6 9 13 10 9 9 11 10 8 9 11 11 13 15 15 16 18 19 19 20 21 21 21 20 20 20 18 17 18 17 15 14 12 12 12 11 11 10 8 8 8 7 7 7 8 8 9 10 9 9 9 9 8 8 9 8 6 7 8 8 10 9 7 9 11 8 7 8 7 7
4 3 6 9 8 9 9 9 8 6 6 3 5 7 7 5 7 7 5 8 10 9 7 8 8 9 9 7 7 11 12 12 11 12 13 9 8 11 13 15 16 16 17 19 19 19 21 21 22 21 20 21 22 20 19 19 18 17 15 12 12 13 13 13 11 9 8 8 7 7 7 8 8 8 8 8 9 9 9 8 7 7 8 9 9 8 7 8 8 8 9 9 9 9 9 8 6
5 1 5 8 9 9 8 8 8 6 6 6 6 8 7 5 7 6 5 7 6 7 7 7 8 9 10 10 10 10 11 12 11 11 14 13 15 19 20 19 18 17 16 19 21 21 21 22 22 22 21 21 23 21 20 20 18 18 16 13 12 13 15 14 11 10 9 8 7 6 7 7 7 8 9 8 9 9 8 8 8 8 10 11 10 9 8 7 8 8 8 9 9 9 9 9 9
6 4 6 8 10 10 7 7 7 6 6 7 7 8 7 5 6 5 4 6 7 6 8 9 8 7 7 7 4 4 6 7 7 9 11 14 19 23 23 22 20 17 17 19 22 23 23 23 23 22 21 22 23 23 22 20 19 19 17 14 13 15 16 14 13 12 10 8 7 6 6 7 6 7 9 8 8 8 8 8 8 8 9 10 10 8 8 8 8 9 9 9 9 8 8 9 10
5 5 7 9 9 8 6 5 6 6 6 8 9 10 9 6 4 2 1 5 6 2 4 7 7 6 4 5 4 4 3 4 5 8 8 11 15 19 21 20 18 19 22 22 22 24 24 24 25 24 22 23 24 24 23 21 20 20 18 15 14 17 17 15 15 14 11 10 8 7 6 7 7 7 8 8 8 8 7 7 7 8 8 8 8 7 7 7 8 8 9 9 9 9 9 9 8
7 6 7 7 6 5 5 5 5 6 6 7 9 11 11 8 4 2 2 2 4 2 2 5 5 1 5 7 3 2 1 1 1 3 6 5 4 7 12 16 19 25 26 23 21 22 23 24 26 26 23 24 25 24 24 22 21 20 18 16 15 17 18 16 16 15 13 12 10 8 8 7 8 7 7 8 7 7 6 7 7 6 7 7 7 6 6 7 7 7 7 8 8 8 8 8 7
7 6 6 6 5 4 5 5 4 6 6 5 6 9 8 6 5 4 5 4 5 6 4 6 6 3 6 7 3 3 3 1 1 7 8 5 2 1 5 12 21 26 23 21 19 19 20 21 23 25 25 26 26 25 25 23 21 21 19 17 16 16 18 16 16 15 13 12 11 10 10 9 9 8 8 8 8 7 6 6 6 5 5 6 6 6 6 6 6 7 7 7 7 8 8 8 8
6 6 4 4 4 4 6 5 4 6 6 4 3 6 5 3 4 6 5 6 5 6 5 4 5 7 6 4 3 3 3 4 6 9 7 4 3 1 2 6 13 19 19 18 19 18 17 18 21 23 23 26 27 26 26 24 21 20 19 19 17 17 17 16 15 15 14 13 12 11 10 11 11 10 9 9 9 8 7 6 6 5 5 5 5 6 6 6 6 6 7 7 6 7 7 7 7
6 6 5 4 5 5 5 4 4 4 4 4 2 1 4 2 3 5 5 9 5 5 5 5 5 5 3 2 2 5 7 8 8 8 6 5 4 4 4 3 3 12 15 15 16 16 16 17 20 22 21 24 26 26 27 25 22 21 19 19 18 17 17 16 15 15 14 13 12 12 11 10 11 11 10 10 9 9 8 7 7 6 6 5 5 5 5 6 7 6 6 6 6 6 6 6 7
4 4 5 5 4 5 5 4 5 4 4 4 3 2 3 2 1 1 5 6 5 6 6 6 4 5 5 4 5 7 8 8 7 7 6 6 6 6 7 6 5 6 10 11 12 13 14 15 18 20 21 22 24 25 26 26 23 22 21 20 19 18 17 16 14 14 15 13 11 12 12 9 10 11 11 11 11 10 9 9 8 7 7 6 5 5 5 5 6 5 5 6 5 5 5 5 5
2 3 5 3 4 5 5 5 5 4 5 5 4 5 4 3 4 5 6 7 8 8 7 8 7 7 7 6 6 7 8 8 8 7 7 7 8 8 8 8 6 6 5 6 7 9 11 13 15 17 18 20 23 24 25 25 24 22 21 20 19 18 17 17 15 13 15 14 11 10 11 10 9 9 11 13 12 11 11 10 10 10 9 8 7 7 6 6 6 6 5 5 5 5 5 4 4
5 4 2 2 4 6 4 4 4 4 6 5 3 6 7 4 3 6 9 9 8 9 9 9 9 9 8 7 8 8 8 9 9 8 8 8 8 9 10 9 7 5 3 3 4 6 7 9 13 16 18 20 22 24 24 23 23 23 21 20 18 17 16 15 14 13 13 14 12 9 9 10 10 9 9 12 13 12 12 12 11 11 11 11 10 9 8 7 7 7 6 6 7 6 5 4 5
9 7 4 3 4 4 3 3 4 5 5 4 5 7 7 5 3 4 9 8 5 7 8 11 10 10 9 8 9 9 9 9 8 8 8 7 9 10 10 10 10 9 6 3 3 5 5 7 11 13 14 14 13 16 21 22 20 19 19 19 17 15 14 13 12 11 11 12 12 10 9 10 11 11 10 12 13 13 13 14 13 13 13 12 12 10 10 9 8 8 8 7 8 8 6 6 5
11 9 6 5 4 3 4 4 3 5 6 4 6 7 4 2 2 1 3 4 0 4 4 9 9 10 10 8 8 9 8 7 8 8 8 8 9 10 11 12 13 13 11 8 5 4 6 6 8 10 9 8 7 4 7 14 17 16 15 16 15 14 13 12 11 11 9 10 11 10 10 9 11 12 12 13 14 14 15 15 15 14 14 14 14 12 12 11 10 10 9 9 10 9 9 9 7
6 6 5 4 4 4 5 5 4 4 6 4 5 5 1 2 2 2 2 4 4 4 5 6 9 10 10 8 8 8 7 8 8 8 9 9 10 10 11 11 12 12 13 12 10 6 5 3 5 10 12 12 11 6 4 5 10 11 11 12 12 12 11 11 11 12 10 10 11 11 13 12 12 13 13 14 15 15 15 16 16 16 15 15 15 14 14 13 12 12 11 11 11 10 10 10 10
6 4 3 3 3 3 4 5 4 3 3 4 6 5 1 2 2 1 2 2 5 4 6 7 11 10 10 9 8 8 7 7 7 9 9 8 9 11 12 12 12 12 11 9 8 9 8 6 6 7 9 11 14 13 11 9 9 9 8 9 10 10 10 11 12 13 12 12 12 12 14 14 15 14 14 14 15 15 16 17 17 16 16 16 15 15 15 15 14 14 14 13 13 13 12 11 12
Wind_Direction
248 264 273 274 269 271 267 241 246 216 222 254 251 258 255 253 257 233 143 123 287 314 24 13 340 323 328 11 87 69 38 37 38 45 97 124 121 109 111 117 121 125 130 142 148 146 146 145 143 142 139 138 138 139 142 145 146 146 146 148 149 146 144 144 145 143 144 143 141 135 130 138 146 149 148 147 151 153 149 143 143 141 134 125 112 104 99 95 91 90 91 90 91 89 87 89 91
261 271 262 258 255 260 263 214 249 248 222 243 245 244 252 253 254 298 274 271 359 76 35 2 13 321 344 336 66 78 53 49 72 83 107 123 121 116 119 120 123 127 134 144 146 146 147 147 145 143 142 140 139 141 142 143 141 139 137 140 141 142 143 143 143 143 143 141 136 131 130 139 145 147 148 149 156 160 158 151 149 145 136 125 115 108 100 94 92 90 90 91 92 90 86 90 93
263 275 259 244 237 239 268 241 242 259 245 247 249 234 235 237 207 246 263 335 45 71 20 20 11 322 20 5 24 66 69 60 82 98 110 117 122 123 124 123 125 128 134 141 144 148 149 149 148 144 143 141 141 141 141 142 140 139 139 140 139 141 142 142 141 141 141 137 133 131 133 140 145 144 144 151 156 159 159 155 152 144 133 126 116 106 100 95 93 93 94 96 95 93 89 90 95
259 271 264 251 237 224 247 250 234 252 257 256 265 248 230 240 202 47 48 43 35 42 341 15 78 40 40 37 47 68 76 72 86 103 118 122 124 123 127 125 125 129 134 138 142 149 151 151 149 145 145 143 143 141 142 142 140 140 140 141 139 139 140 140 139 139 137 134 134 133 135 139 145 145 145 151 157 158 154 154 151 139 129 126 114 105 108 101 98 100 99 102 99 95 92 94 97
256 260 258 253 255 243 245 251 241 245 251 257 269 288 27 5 11 39 54 39 4 357 321 325 116 78 61 39 43 59 65 82 85 96 115 122 127 126 127 127 127 130 135 137 143 152 152 151 149 147 147 145 144 143 143 140 138 138 138 139 137 138 139 139 138 136 134 133 134 133 133 135 140 144 147 148 151 149 143 147 144 133 128 130 124 128 135 119 110 107 110 110 102 100 98 103 104
250 254 243 238 268 300 275 252 246 244 243 253 266 281 50 38 25 24 43 37 326 297 294 271 199 90 81 61 60 45 19 95 99 101 117 118 125 129 128 129 129 130 135 137 145 154 153 152 150 148 149 147 146 144 143 139 136 136 135 137 135 137 138 139 138 135 133 133 135 135 132 132 135 139 143 143 143 140 137 139 139 140 141 144 141 146 151 134 124 124 132 120 107 111 107 111 118
248 255 227 222 252 269 259 250 251 253 242 241 253 266 27 63 51 346 296 63 198 207 223 235 222 97 86 89 81 39 25 95 118 115 122 123 126 128 128 128 126 131 135 133 146 154 153 153 151 150 151 149 148 146 144 140 136 136 136 137 136 136 136 138 138 135 134 135 137 137 136 133 133 137 141 142 141 140 144 144 142 146 148 155 154 152 154 146 142 149 153 133 118 119 113 117 120
248 259 236 233 241 227 238 250 252 258 257 249 255 274 23 65 42 316 310 334 171 212 194 196 206 113 87 84 89 45 47 81 112 120 128 129 127 127 128 126 124 133 132 132 149 154 153 155 153 153 153 151 149 148 146 141 138 138 138 139 139 138 138 138 137 136 136 136 137 138 139 134 134 140 143 144 145 146 148 149 145 143 145 155 157 156 156 154 159 165 165 150 135 121 123 120 99
239 243 249 251 247 246 243 249 248 248 260 261 258 267 255 144 234 276 289 292 253 251 217 149 264 139 106 89 90 63 62 94 116 118 127 127 127 129 130 127 127 132 129 137 151 153 155 157 155 155 154 153 151 150 147 143 141 140 139 140 141 141 139 139 138 138 137 138 138 140 141 138 140 144 146 148 151 155 154 152 143 138 141 145 152 158 160 158 164 172 171 158 142 123 124 103 90
229 227 242 259 250 257 251 249 252 243 248 253 249 256 328 35 305 273 271 280 266 255 199 133 99 117 110 88 84 65 54 102 121 122 124 126 133 133 132 130 129 132 133 143 151 152 156 157 157 157 156 156 154 154 150 145 144 142 141 140 141 142 140 139 138 138 139 140 141 143 143 143 146 147 151 153 157 165 163 159 149 142 138 139 151 160 163 163 166 171 169 151 129 108 107 104 96
235 221 234 262 255 256 255 254 256 246 242 241 235 212 277 126 294 283 278 275 277 274 198 145 121 101 93 70 61 41 32 32 101 133 130 128 134 130 130 129 127 131 133 141 150 154 156 158 159 160 159 158 158 157 154 149 147 145 143 143 143 142 141 140 139 140 140 143 146 146 146 146 150 153 154 155 157 164 163 162 156 146 139 139 147 157 161 157 165 173 165 149 130 104 113 117 104
246 234 223 241 252 255 259 262 260 259 259 247 226 355 255 172 125 269 271 268 271 267 226 151 123 109 102 103 80 20 69 81 75 108 123 124 127 126 126 126 125 128 132 137 148 154 155 159 161 162 163 160 161 160 157 153 149 146 145 146 146 146 145 143 142 144 146 150 152 150 150 150 154 160 160 159 158 162 159 159 159 145 136 138 139 148 160 155 164 180 165 145 131 125 128 127 116
244 250 241 242 251 258 263 267 268 269 277 277 92 79 158 148 166 270 296 294 282 272 220 123 119 118 118 121 143 164 127 150 144 134 140 127 125 123 125 126 126 129 134 138 146 153 156 160 162 165 166 163 164 161 159 157 154 150 149 150 151 151 148 147 148 151 155 157 155 150 152 155 162 167 164 164 163 164 163 160 161 148 139 144 144 146 161 164 170 183 169 146 140 144 143 139 135
240 250 259 264 264 265 270 267 273 280 291 355 98 112 106 168 232 331 314 295 287 290 102 115 122 118 122 130 145 158 155 176 159 151 153 125 121 121 125 127 127 132 136 139 144 151 156 160 162 166 167 165 165 162 162 161 158 155 155 156 154 153 150 151 155 159 163 161 152 143 153 165 168 169 168 170 170 171 172 172 165 159 152 150 153 151 161 171 177 187 178 157 153 159 157 149 146
243 255 260 267 271 269 269 266 272 276 274 55 81 100 88 241 248 351 279 276 277 281 102 115 129 121 138 159 153 161 164 170 161 148 141 131 129 124 126 129 129 133 137 140 143 148 153 156 162 166 165 165 164 161 164 165 166 163 159 159 157 156 156 157 163 168 168 160 142 139 163 172 172 173 172 173 175 177 175 177 174 167 160 155 160 160 166 176 180 185 183 172 167 170 164 154 155
242 266 270 259 263 262 258 266 264 259 256 95 112 156 89 242 217 265 266 273 275 275 218 106 111 113 141 168 143 152 162 160 155 149 142 137 136 130 130 132 130 132 134 139 142 145 151 153 161 165 163 162 158 156 169 172 171 169 163 164 163 160 161 163 173 177 170 151 134 149 173 168 176 185 181 182 178 177 176 178 183 176 171 169 169 168 175 186 191 193 192 189 182 181 173 166 169
240 245 260 256 254 255 254 262 260 266 261 111 136 132 10 317 321 286 277 267 274 284 296 98 86 83 118 158 141 144 150 150 150 145 139 135 135 136 138 137 133 131 132 137 143 147 150 152 156 160 159 155 152 158 173 175 173 174 173 172 168 165 168 170 176 176 167 146 132 160 179 167 181 189 185 190 181 178 183 182 183 188 193 189 182 180 185 192 199 204 200 191 188 190 184 181 185
241 233 241 252 250 253 256 253 257 278 239 94 63 61 11 307 305 308 290 258 257 270 253 107 97 82 95 130 135 138 140 142 148 143 143 147 146 148 145 145 141 134 137 141 144 148 149 151 153 154 155 151 156 167 171 170 173 176 180 180 176 175 177 177 175 167 160 140 136 171 187 177 181 184 185 188 183 183 188 188 187 194 202 201 198 196 196 201 209 214 209 192 190 196 195 200 206
231 243 237 242 249 257 262 256 265 344 312 332 10 38 252 292 304 319 299 268 251 252 236 121 105 100 101 120 132 138 138 142 147 144 158 165 155 151 146 147 146 140 146 150 149 150 146 149 153 150 151 153 160 171 166 162 172 176 179 180 184 189 187 182 171 160 153 144 159 186 193 189 187 188 192 191 185 186 189 191 195 201 205 207 207 205 203 210 221 226 222 206 199 202 211 218 218
221 241 245 244 247 255 265 272 303 349 320 313 313 315 328 287 284 315 298 281 269 254 231 150 120 122 128 131 138 144 144 147 148 150 166 167 152 149 150 148 146 145 148 151 152 151 146 146 145 141 145 154 161 165 162 159 171 178 178 179 190 200 195 182 170 168 173 181 191 196 196 198 199 199 199 195 190 192 196 196 200 207 210 209 207 207 210 218 226 231 226 219 217 218 227 228 226
216 226 242 253 255 262 278 299 337 324 308 309 305 316 303 279 295 304 277 278 262 248 256 202 143 136 138 141 149 154 154 153 152 162 169 160 150 151 152 149 145 144 144 143 146 146 145 141 135 137 145 154 159 157 156 157 166 172 176 181 190 197 194 180 175 186 193 201 209 207 202 200 205 210 205 196 191 194 198 203 208 211 214 215 211 206 214 224 221 226 225 221 222 226 232 229 235
228 234 242 258 273 285 299 316 354 327 310 308 296 291 278 283 305 272 263 260 262 285 358 37 146 142 140 145 153 156 157 157 159 167 166 155 151 155 155 150 145 144 145 142 138 140 142 139 134 137 141 149 151 148 150 152 157 162 172 184 189 191 193 187 186 201 208 204 202 205 199 197 208 211 204 199 196 195 195 204 213 214 214 214 212 204 214 233 224 216 223 225 226 229 234 233 244
238 248 248 258 271 276 283 299 330 334 283 273 273 268 267 284 275 266 262 249 272 45 55 83 122 131 136 139 144 143 138 146 180 167 157 159 156 158 158 148 145 149 150 143 141 143 142 141 141 139 139 141 139 146 158 156 154 160 173 182 189 188 179 181 186 197 212 210 203 207 198 199 210 202 195 200 197 197 201 205 209 212 212 209 211 203 211 236 232 215 217 221 233 237 240 238 246
234 248 258 257 257 263 273 280 289 271 255 258 264 266 264 271 268 261 254 244 193 79 81 97 104 112 126 122 120 125 124 116 283 217 157 160 155 150 153 144 147 155 146 137 142 150 146 143 143 141 142 143 142 150 161 165 170 170 172 177 183 186 172 169 178 185 203 210 215 221 214 212 211 193 187 193 191 196 208 210 209 214 216 214 218 213 216 232 229 224 223 219 230 239 239 235 236
233 243 260 266 264 265 270 271 274 262 255 256 255 258 258 257 264 267 257 245 163 103 99 104 108 119 118 110 117 125 138 132 267 264 172 154 152 144 148 145 149 150 138 136 145 153 151 144 143 144 148 151 151 153 156 165 174 169 172 177 178 181 178 177 185 190 197 203 211 219 219 215 206 193 187 186 190 200 214 218 214 220 223 217 222 227 227 229 229 231 232 229 232 236 233 227 222
238 247 250 257 261 252 253 256 250 246 239 247 248 245 249 247 252 261 251 224 123 109 108 115 123 135 133 130 132 129 145 134 167 258 200 152 151 145 148 151 149 144 137 140 146 152 149 143 144 146 149 155 158 155 155 165 170 169 178 196 192 183 181 186 189 192 204 208 207 210 213 211 201 196 195 195 199 209 224 231 225 225 224 215 217 228 230 228 243 238 237 245 240 240 244 239 220
254 262 254 254 263 259 256 253 245 237 230 241 241 240 245 232 225 248 231 152 112 115 122 137 135 156 159 142 140 135 161 152 163 229 210 151 150 144 151 157 149 143 141 142 142 146 141 140 141 137 141 148 155 155 154 161 165 167 166 185 199 193 192 196 190 191 209 213 206 205 207 212 208 200 197 198 201 207 218 224 224 223 219 219 220 231 233 232 262 262 255 256 244 247 254 260 244
266 277 268 260 266 262 255 256 250 237 237 238 233 246 246 206 208 235 167 106 99 116 130 150 147 169 164 137 128 124 159 143 171 227 207 145 150 144 151 157 145 140 145 144 138 139 135 130 123 118 130 134 137 143 144 152 161 166 161 167 177 179 192 194 184 188 204 216 213 205 194 202 212 209 205 190 191 204 207 213 214 217 219 224 240 255 245 238 268 273 270 260 243 251 247 248 266
266 267 267 260 254 248 241 241 239 231 237 224 219 249 240 208 223 211 130 116 122 130 137 152 157 167 145 122 107 102 118 90 242 246 189 140 149 143 154 157 146 144 146 142 135 135 124 115 110 108 124 122 108 121 129 137 149 160 151 149 156 158 178 188 189 188 193 214 219 211 198 201 207 212 217 200 199 213 216 232 227 228 231 219 244 271 271 254 249 252 264 260 243 257 249 244 252
262 251 253 258 254 243 225 220 224 227 230 200 199 246 223 211 209 164 131 144 151 158 163 153 155 163 127 112 117 120 124 99 264 253 174 142 153 149 159 153 149 149 141 137 135 133 118 112 112 109 120 116 106 110 105 105 114 122 129 127 129 143 160 166 190 194 188 213 223 219 208 204 202 205 213 202 204 211 216 242 238 241 244 228 229 237 240 237 230 237 251 244 233 245 249 253 250
253 245 243 243 258 248 203 192 212 221 204 166 191 250 235 214 191 162 154 174 161 161 172 152 145 145 120 121 127 123 124 115 253 254 172 145 161 157 160 154 152 148 137 137 137 134 125 121 119 116 119 113 106 104 92 96 96 88 104 110 109 125 142 144 167 180 179 202 204 212 216 205 201 204 209 197 201 216 219 224 220 225 238 239 231 219 220 227 226 234 244 236 235 241 241 247 245
234 241 236 226 249 240 161 169 203 211 166 162 212 251 246 230 194 147 133 210 198 156 149 142 149 144 128 137 128 127 120 104 262 257 186 152 165 159 160 159 151 142 138 140 139 136 130 129 126 121 120 113 107 105 97 99 100 89 95 103 108 119 130 136 150 153 144 175 180 189 214 210 215 218 218 203 203 222 226 223 219 215 229 242 237 219 214 219 223 227 233 235 244 249 243 232 226
215 234 243 239 242 189 144 175 194 212 191 177 213 246 253 227 180 143 147 215 220 138 141 155 164 156 143 143 138 146 110 92 255 244 194 165 167 160 161 161 149 142 143 143 140 138 133 131 131 125 121 118 113 109 103 102 103 101 106 108 106 113 123 136 152 148 123 110 129 125 151 178 248 246 237 224 226 234 229 236 242 232 231 232 227 224 218 215 224 224 223 230 241 248 250 247 202
205 221 234 250 252 191 158 177 181 219 222 187 205 234 256 117 120 162 166 219 225 149 153 162 159 158 154 147 147 149 136 169 221 206 181 175 165 160 163 161 148 144 147 145 142 140 136 133 133 129 126 125 119 114 110 110 109 106 109 107 106 112 100 88 112 125 116 107 89 63 79 76 37 359 350 319 295 277 233 253 262 245 239 227 220 227 226 222 230 225 216 223 236 241 245 269 319
307 278 244 239 256 235 211 190 168 197 214 216 217 228 234 134 133 203 182 217 242 179 158 155 153 158 157 156 159 157 159 186 198 161 157 169 160 160 166 162 148 146 150 147 144 141 138 136 136 134 131 130 127 121 116 115 115 106 109 110 111 114 101 85 83 87 93 98 81 56 63 47 44 38 20 14 18 28 57 32 25 322 258 239 228 231 227 222 231 224 213 223 239 242 241 256 261
343 317 283 238 252 251 247 158 139 172 207 222 224 229 227 181 173 198 182 198 233 217 168 150 154 160 161 166 163 161 162 175 181 155 149 150 161 172 172 163 149 149 152 149 147 144 141 140 139 139 139 136 132 128 124 124 122 116 119 116 102 96 97 95 87 89 95 95 84 75 71 38 47 54 35 29 36 40 54 57 45 37 19 319 259 249 235 219 232 233 219 227 242 244 245 251 242
328 316 298 256 257 244 207 147 141 168 254 238 230 241 237 217 211 197 183 208 203 225 226 160 154 164 172 174 166 163 160 165 171 155 146 152 171 189 181 168 157 153 154 152 150 147 145 145 144 144 145 142 139 139 136 135 134 128 123 116 113 108 111 115 96 90 96 100 92 78 71 59 60 61 47 54 62 50 50 57 55 51 37 17 6 288 261 213 233 237 217 222 239 241 246 256 236
313 305 299 283 268 246 128 105 125 137 268 271 259 258 249 231 239 228 199 221 190 196 260 228 168 176 180 176 173 165 153 163 164 144 153 168 171 189 195 177 167 162 157 156 155 150 149 150 147 148 149 147 145 145 142 139 136 134 134 133 133 122 116 120 108 95 96 97 86 71 67 65 70 72 68 75 80 69 53 49 57 60 51 37 46 63 47 18 242 251 239 225 232 235 235 246 233
298 285 279 278 272 258 106 101 175 171 180 263 264 265 268 240 234 269 252 243 216 193 240 260 218 205 203 181 172 163 149 162 168 147 168 183 167 171 200 200 180 170 163 159 158 153 152 152 150 151 151 151 150 147 144 138 124 121 127 128 124 109 99 105 103 100 101 93 81 72 68 64 67 73 74 71 73 74 57 48 56 54 53 52 53 68 63 50 63 53 320 249 223 212 222 245 240
272 273 270 265 263 262 186 127 259 318 327 284 282 285 297 282 229 251 254 232 217 221 233 248 240 230 236 179 157 157 151 157 168 156 169 194 173 165 190 210 192 175 169 164 160 156 155 154 153 154 154 153 152 149 146 140 124 114 109 106 114 115 105 103 103 102 100 91 79 73 69 65 64 64 61 64 71 73 56 56 61 42 46 47 33 68 72 52 50 57 57 75 124 139 138 257 246
251 245 254 267 274 278 288 109 91 333 302 274 281 284 282 268 221 232 248 205 193 224 231 237 234 229 242 168 143 150 154 156 168 165 168 185 179 175 194 205 194 182 178 171 165 160 158 157 156 157 156 155 153 150 149 145 133 124 116 107 111 117 114 114 115 110 103 94 84 77 71 67 69 67 62 66 70 70 64 61 55 43 51 44 29 49 66 47 37 46 50 63 85 104 103 109 108
254 238 241 257 276 291 302 277 166 255 264 224 231 259 252 238 227 228 234 205 199 223 228 232 234 226 231 181 142 142 153 165 170 164 164 172 171 182 201 205 195 190 186 178 170 165 162 159 158 159 157 157 155 151 153 148 139 136 132 125 125 128 134 137 128 120 109 98 92 86 80 74 72 70 67 70 70 68 76 64 50 55 60 56 41 39 45 41 37 31 33 47 64 80 90 101 99
262 290 283 262 267 280 280 273 255 244 268 212 188 240 265 249 251 245 234 218 205 211 222 222 228 225 224 211 157 141 150 168 167 158 161 174 170 175 199 210 203 196 190 182 175 169 165 161 160 161 159 158 157 155 155 150 145 146 145 145 149 149 144 134 126 123 113 103 103 98 90 86 79 76 75 77 75 71 77 71 60 60 60 71 62 44 41 43 41 29 27 39 47 55 70 88 112
258 352 310 277 266 265 256 259 258 253 276 258 188 236 267 263 265 264 249 232 200 191 220 220 217 214 204 208 186 165 166 168 170 164 161 174 185 188 200 206 205 201 190 183 179 173 168 164 163 163 161 160 160 159 158 154 151 153 154 159 163 155 140 130 128 128 121 116 116 107 101 97 88 86 86 85 84 82 83 78 67 60 58 73 78 63 53 51 52 45 38 42 43 45 47 54 86
238 269 302 282 275 273 264 259 259 258 269 260 225 237 251 253 260 249 221 230 202 180 213 223 227 219 191 196 205 188 171 165 170 168 161 171 186 193 196 195 201 207 197 186 182 177 171 167 165 164 163 162 163 163 161 157 157 157 157 165 167 150 137 136 138 136 131 129 125 116 113 108 99 96 95 94 94 90 87 81 72 60 55 65 76 73 64 59 60 57 54 52 47 45 43 45 54
255 278 301 282 270 271 267 262 266 261 253 254 248 243 249 251 255 250 205 215 218 203 205 205 222 228 189 185 178 121 126 141 162 176 164 166 178 184 187 188 194 204 206 196 184 178 174 170 167 167 165 164 166 166 163 160 161 161 160 168 167 147 142 148 147 143 142 140 135 129 125 119 113 109 106 106 104 99 93 86 80 73 65 67 74 73 68 65 64 61 60 59 57 57 51 51 56
271 259 268 263 253 253 252 254 263 261 252 254 254 250 256 257 237 241 259 211 197 224 228 185 193 219 158 117 96 100 146 161 179 192 168 160 177 181 175 176 189 207 209 199 184 180 178 172 170 169 167 167 169 168 165 162 164 164 162 171 170 152 152 157 150 149 152 150 149 148 144 136 129 125 121 119 115 111 108 99 91 86 81 79 78 78 77 72 67 64 62 59 60 62 59 57 60
260 249 262 270 252 246 255 247 243 250 250 250 258 256 250 251 242 166 98 146 136 93 251 164 152 222 97 97 109 118 115 254 231 132 105 110 172 182 166 170 192 207 205 190 179 182 182 176 173 171 168 169 170 170 168 165 167 167 165 173 173 159 160 162 154 158 162 160 162 161 159 151 143 142 137 135 133 127 121 112 107 99 95 92 86 86 90 87 84 79 73 67 65 66 67 69 69
244 246 250 265 259 253 256 246 239 256 263 270 299 293 257 229 257 226 159 180 185 148 158 170 160 139 101 97 95 79 81 288 24 70 68 54 42 204 199 191 191 193 192 181 174 180 185 183 178 173 170 170 171 171 170 168 169 170 168 173 176 165 165 165 161 165 169 168 170 170 170 165 159 160 157 156 153 146 143 126 118 116 109 109 109 105 101 98 96 94 89 81 77 74 69 70 69
224 245 241 248 256 258 255 248 241 247 262 275 321 319 281 197 271 271 173 157 176 142 125 141 131 113 111 127 149 128 94 55 49 65 69 55 47 46 238 216 188 175 177 180 173 176 185 188 185 180 174 171 171 171 171 170 170 171 170 173 177 171 169 170 167 171 175 176 177 177 179 177 172 172 171 173 170 160 158 147 139 146 133 122 122 119 118 118 113 107 105 99 91 86 81 79 77
231 243 244 230 230 246 256 260 266 269 288 270 189 286 287 221 305 327 90 105 113 129 112 93 93 106 141 182 126 96 76 62 59 70 79 75 58 51 45 15 150 154 167 179 172 174 187 192 190 187 179 172 172 172 171 171 171 171 171 174 178 176 174 175 172 175 180 181 184 184 186 188 181 179 179 182 182 173 169 167 164 164 154 145 140 131 131 127 122 123 123 116 109 107 105 93 83
270 259 248 232 228 244 256 271 287 302 304 280 224 229 276 206 222 4 100 117 133 137 127 129 146 142 133 115 84 83 82 83 83 85 89 90 84 75 67 46 45 111 147 166 170 178 190 198 197 194 185 175 173 173 171 171 172 172 171 174 179 179 178 180 181 182 184 187 192 187 188 196 190 184 184 187 188 181 179 179 175 178 172 166 161 146 146 145 137 141 140 131 128 120 108 96 86
298 269 260 278 278 261 265 275 275 265 261 260 236 242 248 178 188 194 176 171 157 149 152 154 145 119 106 99 92 92 92 93 92 88 88 89 88 85 83 78 57 56 101 144 174 188 194 201 202 202 198 182 174 175 173 170 171 173 173 174 178 180 179 181 185 188 185 187 196 194 191 199 200 194 187 189 194 188 188 190 184 188 185 178 181 167 164 171 157 157 162 149 146 140 124 121 117
284 267 267 324 274 256 259 276 269 255 255 254 237 246 248 231 216 200 190 179 166 171 166 142 127 115 108 99 94 95 94 93 90 86 82 78 80 78 74 80 82 75 86 134 171 182 191 203 203 205 207 195 179 173 173 171 170 171 173 175 179 184 184 183 186 191 185 183 192 198 197 201 205 206 197 194 199 194 194 197 193 197 195 188 190 181 178 185 170 166 174 165 162 160 153 147 138
254 268 298 296 264 255 244 257 266 263 265 269 267 264 258 256 257 196 184 177 187 201 163 138 137 128 115 108 103 98 93 91 89 89 85 74 73 75 76 81 81 76 73 95 140 165 179 201 206 201 206 211 196 174 169 169 169 170 172 175 180 184 187 186 185 188 184 181 188 195 203 209 209 212 211 205 203 201 203 204 201 203 202 198 197 189 188 190 180 180 184 179 180 176 166 166 162
233 241 265 266 264 269 251 247 253 256 263 269 266 268 277 307 333 18 183 164 62 282 189 148 145 130 116 115 110 101 97 96 94 94 92 85 79 74 77 78 72 62 57 63 81 138 165 187 200 189 190 217 233 219 177 166 163 165 167 172 180 186 189 193 190 190 189 185 189 198 209 219 219 216 217 216 211 208 211 211 209 210 208 205 202 197 196 195 188 192 196 192 191 185 176 180 181
254 235 249 265 274 288 275 260 261 271 274 278 274 271 318 32 51 67 221 160 110 278 241 151 128 121 114 110 106 102 99 96 95 98 99 102 105 103 97 91 86 72 56 49 48 67 106 136 169 165 170 185 187 197 227 179 153 152 156 164 174 182 186 195 196 194 200 200 201 211 217 226 236 230 222 221 218 215 218 219 216 214 214 211 207 202 200 199 196 198 200 199 199 192 186 189 186
290 279 281 297 285 284 278 264 275 308 289 282 288 286 5 31 45 89 259 125 112 242 239 132 117 115 110 108 107 105 103 100 97 97 96 97 102 108 108 102 100 100 95 83 64 63 70 60 73 109 136 160 166 165 170 167 151 144 147 158 173 188 195 203 206 204 211 213 213 220 221 227 238 239 234 230 225 222 223 225 223 221 220 217 212 209 206 203 203 205 203 203 204 197 194 197 193